sat.trackr.live / text

‹ back to catalog

STARLINK-2411

NORAD 47826 · 2021-018AR

PAYLOAD ACTIVE UNKNOWN

§ Identity

Operator
Country
US
Launch date
2021-03-11
Launch site
AFETR
Launch vehicle
Mass (kg)
RCS (m²)

Purposes: comms

External: N2YO · Heavens-Above · Gunter

§ Orbital elements

Epoch: 2026-09-19T23:32:31.043040Z

Period
94.01 min
Inclination
53.1598°
Eccentricity
0.0001370
Mean motion
15.31705791 rev/d
Perigee alt
469.8 km
Apogee alt
471.7 km
Semi-major
6,848.9 km
B*
1.6598e-5
RAAN
61.1874°
Arg perigee
49.3502°
Mean anomaly
310.7619°
Rev number
30,646

§ Raw data

STARLINK-24111 47826U 21018AR  26262.98091485  .00000150  00000+0  16598-4 0  99992 47826  53.1598  61.1874 0001370  49.3502 310.7619 15.31705791306466

JSON: /api/v1/satellites/47826 · /tle

For live sub-satellite position, see the globe view (requires WebGL).

§ Visibility from observer

Set your observer location to see the next 7 days of passes ≥ 10°. The values pass through the URL so the page stays shareable.

No JS? Fill the form by hand. The geolocation button needs JavaScript.